星链-35378(STARLINK-35378)

导读

STARLINK-35378是美国SpaceX星链星座的卫星,于2025年9月26日发射升空,归属Starlink低轨互联网卫星星座组网卫星,星链星座旨在为全球提供高速、低延迟的宽带互联网服务,该卫星加入星座后,会进一步完善全球网络覆盖,推进星链项目的全球服务部署。

Basic Information
目录编号:
65794
目录名称:
STARLINK-35378
国际标识:
2025-218D
轨道中心:
EARTH
卫星名称:
星链-35378
卫星全名:
星链-35378(STARLINK-35378)
卫星状态:
在轨 (已飞行260 天)
发射日期:
2025-09-26 UTC
国别 :
美国 (US)
星等 :
--
Orbit Information
数据来源 国际轨道数据 AOE轨道数据
星历时间 2026-06-13T10:29:34+0800
11小时前
查看轨道信息
2026-06-09T00:00:00+0800
4天前
查看轨道信息
半长轴 6927.624km 6927.646km
偏心率 0.0001943 0.0002329
轨道倾角 97.368° 97.389°
近地点辐角 74.432° 76.476°
升交点赤经 26.091° 21.846°
平近点角 285.712° 7.656°
近地点 548.14km 547.895km
远地点 550.834km 551.123km
周期 95.639分钟 95.640分钟
每日圈数 15.056579 15.056509
Detailed Information
固有亮度:
5
最大亮度:
2.5
卫星平台:
Starlink V1.0
覆盖范围:
全球
运营商:
太空探索技术公司
运营商所在国:
美国
制造商(研发单位):
太空探索技术公司
制造商所在国:
美国
使用方式:
暂无
Satellite Introduction
Starlink 计划是 SpaceX 推出的全球卫星互联网项目,通过发射低轨道卫星,为全球尤其是偏远地区提供高速、低延迟的互联网服务。自 2019 年起,Starlink 已部署数千颗卫星,旨在缩小全球数字鸿沟,推动互联网普及。该项目还为军事、航空等行业提供通信支持,带来广泛经济效益。
2D Orbit Map
3D Orbit Map
Orbit Altitude Analysis Chart
Orbit Inclination Analysis Chart
Orbit Comprehensive Analysis Chart
View Comprehensive Chart